Location: Unspecified
(41.1637°N, 24.2901°E)
Time: 13:21:40
(UTC+01:00)

ARIANE 6 FM1 Upper Stage - Visible Passes

Search period start: 21 January 2026 00:00
Search period end: 31 January 2026 00:00
Orbit: 522 x 610 km, 62.0° (Epoch: 20 January)

Date Brightness Start Highest point End Pass type
(mag) Time Alt. Az. Time Alt. Az. Time Alt. Az.
21 Jan 4.8 16:59:00 10° ESE 16:59:41 10° ESE 17:00:23 10° ESE visible
21 Jan 2.8 18:34:04 10° SW 18:37:44 67° WSW 18:37:44 67° WSW visible
22 Jan 4.4 16:57:08 10° SSE 16:59:41 16° ESE 17:02:12 10° ENE visible
22 Jan 3.2 18:34:22 10° SW 18:38:20 50° NW 18:38:37 49° NW visible
23 Jan 3.9 16:56:22 10° S 16:59:41 24° ESE 17:02:58 10° ENE visible
23 Jan 3.9 18:34:49 10° WSW 18:38:33 34° NW 18:39:23 31° NNW visible
24 Jan 3.3 16:55:57 10° S 16:59:44 36° ESE 17:03:27 10° NE visible
24 Jan 4.5 18:35:25 10° W 18:38:48 25° NW 18:40:04 21° NNW visible
25 Jan 2.8 16:55:47 10° SSW 16:59:48 56° ESE 17:03:45 10° NE visible
25 Jan 4.9 18:36:13 10° W 18:39:06 18° NW 18:40:40 15° N visible
26 Jan 2.6 16:55:47 10° SW 16:59:53 86° SE 17:03:56 10° NE visible
26 Jan 5.2 18:37:16 10° WNW 18:39:25 14° NW 18:41:10 11° N visible
27 Jan 3.0 16:55:57 10° SW 17:00:00 63° NW 17:04:00 10° NNE visible
27 Jan 5.4 18:38:51 10° NW 18:39:47 11° NNW 18:40:42 10° NNW visible
28 Jan 3.7 16:56:16 10° WSW 17:00:09 42° NW 17:03:59 10° NNE visible
29 Jan 4.2 16:56:44 10° WSW 17:00:20 30° NW 17:03:54 10° NNE visible
